Disclaimer

Please do not use the information listed here in-flight or in-navigation, as they are not provided to us by the airports but are provided by volunteers, so they might be outdated.

Search


Regions


Airport information page

Radio informations:
INFO - 129.0 MHz

Airport informations:
Latitude: 25° 54' 31.93" N
Longitude: 054° 32' 21.84" E
Elevation: 43 feet - 13 meters
Operating hours: From sunrise to sunset (SR-SS)
Operating agency: Civil government, landing fees and diplomatic clearance may be required
Timezone: UTC+3:30
Fuel: Unknown fuel type or whether there is any fuel.

Runway information:
12/30 - 8345 x 175 feet< - >2544 x 53 meters

Recent METARs:
OIBS 171400Z 22016KT 6000 FEW030CB SCT090 BKN200 24/19 Q1012
OIBS 171500Z 23012KT 6000 FEW030CB 24/18 Q1013
OIBS 171500Z 23012KT 6000 FEW030CB 24/18 Q1013

Airport on the map: